Temp
18 16 16 18 18 20 21 19 20 20 22 22 21 20 23 21 20 20 21 20 20 21 21 22 22 22 20 24 24 23 21 20 19 17 17 17 17 17 18 18 19 19 19 19
16 16 17 19 18 19 19 19 19 20 21 20 19 18 18 19 20 21 23 23 20 20 19 18 18 18 18 21 21 20 20 20 18 18 17 18 17 17 18 18 18 19 19 19
16 17 18 18 18 18 18 19 19 20 19 18 18 18 21 21 21 21 21 20 19 19 19 18 16 15 17 17 19 20 19 18 18 18 17 18 18 17 17 17 18 18 18 18
17 18 19 17 18 19 18 18 19 18 19 17 20 18 21 22 23 22 21 20 19 19 17 17 15 14 15 16 18 19 19 18 18 18 18 18 17 17 16 16 17 18 17 17
17 17 18 17 17 19 18 19 18 18 17 18 19 18 20 22 22 22 22 20 19 17 16 16 14 14 15 16 17 18 18 18 18 18 18 18 18 18 17 17 17 16 16 16
18 18 18 18 20 19 19 21 20 17 17 16 18 19 19 20 22 23 22 21 18 16 14 14 14 14 15 16 17 16 18 18 18 18 18 18 18 18 18 17 16 16 16 16
17 18 19 20 20 19 20 19 18 17 16 18 19 18 22 22 22 22 22 20 17 15 14 13 14 13 14 16 16 16 16 16 16 17 17 17 17 17 17 17 16 15 16 16
18 18 18 18 21 19 19 19 16 18 17 18 19 18 20 21 22 21 20 19 16 15 14 14 13 13 14 15 15 15 15 15 15 16 16 16 16 16 16 16 16 15 15 14
17 18 20 21 21 22 18 18 20 19 17 17 17 19 20 20 20 19 18 16 16 15 14 14 13 14 14 14 14 14 14 14 15 16 16 16 16 15 15 15 14 14 14 14
19 19 19 19 20 21 20 19 17 15 18 17 18 17 20 20 20 19 17 16 16 15 15 14 13 14 14 14 14 13 13 13 13 14 14 14 14 13 13 12 12 12 12 11
19 19 18 19 18 18 19 19 18 17 15 16 17 21 18 20 20 18 17 16 16 15 15 15 14 14 14 13 13 13 13 12 12 12 13 12 12 11 11 11 11 11 12 11
19 17 16 18 20 19 19 18 19 16 17 16 19 21 19 19 18 17 16 16 16 14 12 11 13 13 12 12 12 11 11 12 11 11 10 10 11 11 10 10 10 10 10 10
18 15 14 16 17 18 18 18 19 19 16 18 15 20 16 17 16 16 15 14 12 11 10 11 11 12 11 11 11 11 11 10 10 10 10 10 9 9 9 9 9 9 9 9
19 15 17 19 18 16 17 19 18 18 16 18 19 20 18 16 15 14 12 10 10 9 9 10 10 10 10 10 11 11 11 11 10 10 10 9 9 9 9 9 9 8 8 8
17 15 16 18 17 17 17 18 18 18 18 17 19 19 17 15 14 12 10 10 10 9 9 9 9 10 10 10 10 10 11 11 11 11 10 10 10 10 9 9 9 9 8 8
13 13 16 17 17 16 16 16 17 17 18 19 19 18 16 13 13 12 11 10 9 9 9 9 9 9 9 10 10 11 11 11 11 12 11 11 11 10 9 9 8 8 8 7
12 12 12 16 17 16 15 16 17 17 19 19 17 19 13 13 13 11 10 10 10 10 9 9 9 8 9 10 11 11 11 11 11 11 11 10 10 10 9 8 8 8 8 7
11 12 11 13 12 14 15 16 17 17 17 17 15 13 13 13 11 11 11 10 9 9 9 9 8 9 10 11 11 10 10 10 10 10 10 10 10 10 9 8 8 7 7 7
12 10 11 12 13 13 16 12 14 15 16 16 14 12 11 10 11 9 9 10 9 9 8 9 10 10 11 11 10 10 10 10 10 10 10 10 10 9 9 8 8 7 7 7
13 13 11 11 12 13 14 13 14 15 14 12 13 11 10 11 11 9 9 9 8 8 8 8 9 9 9 10 9 8 8 8 9 9 8 9 9 8 8 9 9 8 7 7
11 12 13 13 13 11 12 12 14 13 14 13 14 12 10 11 13 11 7 6 6 6 7 9 8 9 9 8 8 8 7 8 7 7 8 8 8 7 7 7 8 7 6 6
11 11 11 12 12 13 11 13 14 13 10 11 12 12 10 8 7 7 7 7 7 8 8 9 8 8 8 8 7 7 6 6 6 6 6 6 6 6 6 6 7 6 5 6
12 11 11 12 13 12 11 13 12 10 9 10 10 9 9 6 6 7 7 6 7 7 8 8 8 7 7 7 6 5 6 5 5 4 4 4 4 5 5 5 5 5 3 4
10 10 10 12 11 11 10 10 10 10 9 9 8 9 8 5 5 5 5 5 5 6 6 7 6 5 5 5 5 4 4 4 3 3 3 2 2 3 3 3 2 1 2 3
8 9 9 9 9 9 9 9 9 8 8 8 8 8 6 6 5 6 5 5 4 5 6 6 5 4 4 4 3 3 2 2 1 1 1 0 1 0 1 1 0 1 1 2
8 9 8 9 9 10 9 8 8 8 8 8 8 6 6 6 5 5 4 4 4 4 4 4 3 3 2 2 1 1 1 0 -0 -1 -2 -2 -2 -1 -1 -1 0 0 1 1
Height
786 799 802 787 791 789 792 799 799 791 776 780 781 780 763 758 759 755 747 743 743 736 727 728 725 722 723 722 724 726 733 739 747 755 761 767 769 773 777 780 784 789 793 797
793 793 783 781 786 791 794 799 800 789 779 784 783 779 769 760 753 743 737 735 739 732 729 725 723 721 719 717 720 725 729 735 743 750 757 764 766 771 774 777 782 787 789 792
784 777 771 781 786 793 792 795 796 795 788 783 783 777 758 744 743 737 732 732 731 731 729 726 725 723 719 718 719 724 729 736 743 749 755 760 765 768 772 775 778 781 785 788
779 769 770 780 782 784 794 784 786 794 800 809 777 790 757 744 740 737 732 731 730 729 729 728 728 727 723 722 723 726 730 735 741 747 752 759 763 766 769 773 776 778 782 785
766 768 770 778 776 773 784 773 783 788 802 797 786 797 753 742 747 738 728 727 727 729 730 729 731 729 727 725 725 727 731 737 741 745 750 756 761 766 768 771 774 777 779 780
759 752 758 758 757 764 766 771 777 790 799 808 785 783 761 752 739 730 723 723 727 728 731 731 732 731 730 728 729 731 732 736 740 745 748 754 760 763 766 769 772 774 777 778
760 757 748 746 758 763 767 779 803 807 813 787 763 772 738 729 723 721 719 721 723 726 730 731 732 732 732 732 732 733 735 738 741 744 748 754 758 762 765 767 769 771 773 775
756 760 748 741 742 760 766 770 796 796 800 779 763 765 737 712 706 710 712 713 719 724 728 731 731 731 733 734 735 735 736 739 742 745 748 752 755 759 762 765 767 769 771 772
748 748 725 723 730 736 763 768 753 772 776 784 764 740 721 714 712 713 715 714 716 721 724 727 729 731 734 736 738 738 739 741 742 746 750 752 755 757 759 761 764 767 767 767
726 738 724 724 729 729 738 744 771 782 786 784 756 751 731 718 715 713 715 713 715 718 723 725 728 731 735 737 739 740 741 743 744 746 750 753 754 756 759 759 761 764 769 768
719 726 734 727 729 731 744 746 749 761 772 777 769 723 707 702 702 709 714 715 716 720 722 724 727 732 736 740 742 744 745 746 746 748 751 754 755 756 757 758 758 760 760 765
703 728 740 725 712 714 719 726 733 763 761 759 741 700 698 698 702 704 709 712 718 721 725 727 728 733 738 740 743 745 745 745 748 749 749 752 753 756 757 760 760 761 763 762
704 727 743 737 727 717 720 723 723 727 742 736 763 692 703 702 705 704 710 718 723 725 727 729 732 735 741 743 744 746 746 747 748 750 750 751 751 753 756 757 758 759 761 761
688 709 708 699 702 711 723 715 716 722 740 718 714 699 708 711 713 715 719 723 727 729 731 733 736 741 742 742 744 746 747 748 748 748 749 750 750 749 749 751 753 756 756 757
691 704 702 693 698 702 704 706 707 710 704 723 692 705 707 710 714 718 722 727 728 732 733 733 735 737 741 744 746 746 745 745 747 748 748 749 751 749 749 749 750 750 751 752
699 708 697 696 697 700 704 704 699 697 699 700 700 695 702 711 713 718 722 725 731 732 733 735 736 738 741 742 742 743 743 744 744 743 745 748 747 749 749 750 752 751 751 752
700 703 712 695 695 698 703 676 687 686 685 691 699 678 703 706 707 717 722 721 722 726 733 735 736 738 743 745 744 745 744 745 747 748 747 747 750 751 750 746 746 745 746 748
700 701 717 701 713 696 676 669 671 679 677 679 687 686 692 692 701 704 714 724 728 728 733 735 737 739 743 747 748 747 749 751 750 750 749 747 748 749 746 744 745 744 745 744
690 701 708 701 698 691 668 675 677 676 666 669 679 689 695 700 704 709 710 716 726 725 728 732 736 741 743 745 748 744 747 746 746 747 747 746 745 741 739 739 741 740 739 739
681 684 693 703 691 685 664 660 660 666 668 671 676 690 694 700 706 712 711 714 721 727 731 735 738 741 744 745 745 742 744 744 744 743 744 744 741 739 739 737 735 733 732 733
677 676 671 676 680 678 664 663 663 680 663 653 657 673 687 685 679 691 703 714 720 726 731 733 736 738 741 743 743 738 739 741 742 739 738 738 736 734 732 731 729 728 727 727
663 672 673 676 674 668 657 660 656 648 657 657 658 663 674 683 684 692 698 708 715 719 723 726 730 733 735 737 737 738 738 737 736 736 734 732 730 729 727 724 721 720 721 720
651 651 655 658 649 645 645 641 644 651 658 660 662 667 676 686 691 694 700 705 710 714 720 724 727 731 733 734 735 735 733 732 731 729 727 725 724 723 720 717 714 711 713 714
647 647 651 648 646 645 647 650 650 651 654 658 662 668 675 685 692 696 702 706 710 714 719 722 725 730 731 730 731 731 730 731 727 724 724 723 721 715 712 709 709 705 707 707
646 643 649 651 652 652 650 651 652 655 658 661 667 670 676 683 691 693 701 705 710 715 719 721 724 727 729 729 731 729 727 724 724 723 719 715 712 711 705 701 701 701 700 700
642 641 645 647 643 642 646 648 652 656 660 663 666 674 677 679 687 693 700 704 710 715 718 722 723 723 725 723 724 723 722 722 720 716 712 711 711 706 700 699 694 695 691 690
Wind_Speed
3 4 9 17 7 3 3 4 5 4 4 3 6 7 19 13 7 12 15 11 9 12 6 13 19 20 14 25 30 39 37 37 34 33 30 29 30 30 29 30 30 30 29 30
3 12 11 4 7 8 8 11 9 6 10 3 11 12 11 11 10 12 15 12 10 7 7 7 12 11 10 16 24 27 30 32 32 30 28 20 25 24 27 27 27 27 27 29
9 5 12 10 6 7 8 10 6 7 6 5 7 9 6 8 5 9 8 8 8 8 7 4 6 6 4 6 15 22 25 25 27 26 26 19 16 15 21 24 26 27 26 25
8 7 3 6 8 10 10 9 11 5 3 5 2 7 6 6 10 6 9 7 9 2 3 1 5 5 7 8 11 16 18 20 24 23 23 23 14 11 14 20 26 27 25 25
9 9 15 7 8 13 7 6 9 4 4 3 2 5 5 2 5 13 9 8 5 5 6 3 3 5 6 9 13 15 16 17 18 20 19 22 19 15 14 17 17 21 21 20
6 3 8 9 6 13 6 3 2 3 3 6 9 9 6 6 8 4 5 5 7 8 6 4 1 3 7 10 13 15 16 15 14 15 16 18 21 19 16 14 14 15 15 15
6 8 2 5 5 3 6 7 2 2 2 9 11 10 13 5 5 8 9 8 8 8 7 6 5 3 6 10 11 13 14 14 13 12 11 12 14 14 13 13 13 14 15 16
13 10 16 7 9 8 12 10 6 8 5 5 1 7 6 14 11 6 8 8 9 9 7 7 7 6 7 9 10 12 13 13 11 10 10 10 9 9 10 10 11 13 15 16
7 8 2 11 9 15 7 12 5 4 1 2 5 7 7 7 9 3 6 8 12 9 9 9 7 10 9 9 9 11 14 13 12 11 8 6 5 5 6 7 8 10 11 13
5 2 5 4 7 13 7 6 3 1 4 6 4 7 9 3 9 7 8 9 8 7 8 7 6 9 8 7 7 8 9 9 10 10 7 6 5 3 4 5 5 7 10 11
6 4 3 8 9 13 6 13 4 5 5 5 4 11 7 13 12 10 8 6 8 8 7 7 6 9 8 7 7 7 7 8 7 6 5 3 3 2 2 4 6 8 8 11
17 4 6 9 1 7 10 9 18 4 6 6 13 22 3 3 7 8 10 8 4 6 6 6 3 8 8 9 9 9 8 8 7 7 6 5 3 0 2 5 7 8 10 11
14 6 2 5 4 2 5 6 7 14 3 17 5 21 4 2 4 3 10 8 6 6 8 8 9 7 8 11 11 10 9 8 7 6 5 4 3 1 2 5 7 8 10 11
19 5 10 16 5 7 8 14 13 13 6 15 22 24 2 3 7 6 8 8 7 6 8 10 9 7 11 13 13 12 10 7 6 4 4 2 2 2 4 6 8 10 10 13
11 7 8 15 3 5 6 7 18 17 23 12 23 20 6 8 7 5 7 6 9 8 8 8 7 7 11 12 13 13 13 11 7 4 4 8 10 11 12 13 13 11 13 16
1 3 4 12 10 9 8 10 15 15 20 22 22 22 1 5 7 8 8 10 8 8 8 8 7 7 8 11 11 9 9 7 9 12 13 13 12 13 14 17 18 18 20 20
5 5 3 19 8 9 11 32 21 20 19 17 23 20 8 6 8 6 6 9 12 11 7 7 7 7 8 8 8 6 6 6 6 6 6 9 12 14 15 15 18 20 22 25
7 6 4 3 4 9 9 2 16 24 23 18 8 10 14 12 8 10 8 7 8 8 6 6 7 10 9 5 3 3 2 2 4 7 9 10 11 13 15 16 19 22 26 28
7 5 3 4 7 8 13 7 9 11 20 17 12 9 6 8 6 1 6 9 10 10 8 9 13 10 7 3 1 0 4 4 6 9 10 9 10 12 13 16 20 24 25 27
17 12 7 3 4 9 4 3 5 7 17 14 11 13 14 13 9 4 11 8 7 5 8 8 7 4 4 3 4 4 6 8 12 15 17 18 18 18 20 21 21 25 25 28
7 9 19 16 8 7 6 7 11 8 5 15 21 17 19 13 7 7 14 9 13 17 19 18 15 10 6 6 7 8 9 11 13 15 17 19 19 20 22 24 25 23 24 26
10 9 6 7 9 13 8 12 13 4 1 6 12 16 19 5 7 15 19 16 13 10 12 9 7 5 2 2 6 8 10 13 15 18 20 22 23 24 25 24 27 25 25 26
7 6 8 9 7 2 8 3 3 4 5 5 8 6 10 9 6 12 13 10 8 9 9 9 8 6 4 4 5 9 13 14 18 20 21 23 26 28 26 26 28 28 24 22
4 4 4 4 4 3 4 2 3 4 5 6 6 12 12 8 10 8 7 7 6 8 10 10 9 6 6 5 7 11 13 15 16 20 22 23 24 28 28 27 25 18 18 19
3 8 6 2 1 2 3 5 5 6 7 10 9 9 10 14 8 9 7 7 6 10 9 10 8 8 8 8 9 10 13 14 18 20 23 24 24 25 28 27 21 22 25 24
3 5 4 5 7 3 4 7 7 8 7 11 10 7 6 9 11 7 7 8 10 10 12 10 8 8 10 10 9 10 11 11 15 20 18 18 21 23 22 22 25 24 26 30
Wind_Direction
198 142 200 218 192 194 127 212 255 259 280 9 251 279 284 289 264 268 269 266 271 260 286 289 288 288 264 229 219 215 214 214 206 201 196 208 214 222 227 231 234 235 236 237
99 229 216 147 190 218 249 262 266 285 273 199 281 265 260 272 257 244 264 277 253 275 294 294 313 307 276 240 215 207 203 206 201 199 195 202 209 221 227 228 233 237 238 240
190 209 199 197 195 187 225 229 243 241 325 269 286 283 238 258 250 274 264 250 272 271 273 270 331 339 42 107 183 194 194 196 195 195 195 197 203 212 218 226 228 232 236 238
232 203 165 181 221 189 237 207 242 246 106 249 142 288 274 277 268 267 276 282 275 271 145 133 358 18 45 61 136 171 180 183 187 195 198 199 199 197 220 228 232 234 236 240
221 181 194 184 200 179 220 173 191 200 176 280 161 292 273 243 245 256 262 260 283 171 164 122 17 36 61 87 119 140 153 167 179 193 202 209 213 220 231 235 241 237 236 237
212 206 162 200 196 176 162 85 93 82 144 262 184 196 185 178 212 226 238 233 197 161 147 122 344 86 92 103 120 136 144 152 172 189 198 212 224 230 233 235 236 236 238 249
173 231 199 164 130 124 158 114 277 304 182 246 194 219 250 285 221 213 236 213 193 164 151 167 202 166 134 127 130 131 138 142 158 171 186 209 226 234 236 243 245 241 244 251
206 241 190 182 188 160 187 170 176 201 207 270 209 237 243 220 232 251 241 206 159 160 165 183 189 169 166 145 139 143 143 136 144 158 176 192 202 214 230 242 248 252 253 254
166 235 176 199 179 162 196 210 178 341 133 307 219 277 273 230 238 198 202 170 169 169 171 183 179 187 171 160 153 144 143 141 146 151 160 172 193 204 220 234 246 254 254 254
204 290 198 147 166 226 160 169 95 138 241 238 248 261 232 224 227 223 208 187 171 159 163 175 187 192 184 155 141 139 140 146 147 146 153 168 175 210 229 237 247 264 277 266
173 141 309 130 202 174 176 230 195 162 171 195 285 261 212 203 206 201 199 182 170 171 177 184 173 172 163 130 115 110 109 108 100 93 104 81 52 10 310 287 278 279 276 278
192 152 198 207 281 169 199 201 202 172 218 233 243 264 144 227 233 173 167 166 118 92 66 41 102 122 134 126 129 134 130 127 133 133 118 107 101 350 303 303 299 293 281 272
164 211 108 323 349 286 191 195 186 221 36 237 180 258 14 30 107 154 140 120 99 95 84 81 78 86 114 134 134 131 129 127 127 128 124 127 112 109 309 302 303 288 280 277
162 161 197 223 188 151 195 213 201 188 202 244 236 267 16 141 147 131 118 119 112 104 109 114 104 103 97 97 113 121 118 127 135 149 175 197 238 293 295 283 276 274 277 269
174 210 200 237 128 153 182 193 205 206 224 207 254 245 201 200 173 141 125 117 116 109 103 96 98 91 89 93 91 91 87 74 67 46 360 348 330 322 302 284 276 271 263 261
54 247 172 253 215 200 229 221 226 226 234 242 251 250 347 95 114 152 151 136 127 114 113 117 106 99 91 89 83 74 63 50 26 14 1 346 334 316 307 301 295 287 280 263
159 142 124 247 240 257 237 238 233 235 234 234 237 242 165 172 173 152 155 150 146 142 139 131 123 111 101 96 87 67 45 29 12 347 339 334 327 314 305 301 289 283 276 267
169 152 157 217 86 230 250 214 225 230 238 228 240 164 178 177 152 146 152 168 155 142 131 128 132 134 143 138 116 74 21 339 319 321 322 316 305 300 303 302 289 279 274 266
215 141 176 198 211 308 279 187 171 190 244 215 184 146 143 124 103 8 153 157 173 166 159 157 156 161 163 177 238 12 310 308 306 304 305 315 312 312 311 286 284 275 270 263
219 206 179 166 206 217 331 218 138 89 257 152 159 161 154 149 181 197 179 155 129 129 153 160 165 171 217 290 323 303 296 308 304 313 312 310 311 309 301 294 290 286 267 266
188 207 224 234 239 269 227 138 113 162 255 191 184 168 162 183 187 150 146 165 173 174 184 185 185 193 229 285 310 337 331 314 321 320 314 309 308 308 303 300 295 286 266 261
171 173 195 204 207 243 161 153 182 196 12 184 190 179 182 133 121 155 166 167 174 167 171 171 184 220 250 327 330 315 306 317 317 313 310 312 313 312 309 306 301 290 271 261
206 197 173 199 215 194 192 179 154 135 147 172 162 145 149 126 141 150 150 150 157 155 166 178 178 188 231 287 302 305 311 318 314 311 311 316 313 307 308 307 301 293 272 253
216 161 164 126 225 218 218 1 162 159 149 137 122 139 137 128 140 122 135 140 143 157 171 182 182 215 252 265 295 296 301 304 310 312 311 310 307 310 309 309 302 282 269 255
202 147 155 302 38 59 301 241 161 118 121 119 133 139 139 138 142 144 149 158 160 170 183 186 211 234 256 287 294 296 304 311 305 301 303 309 311 307 308 306 289 276 268 253
215 168 164 217 190 167 212 178 160 142 145 144 137 120 124 142 150 145 157 158 164 176 183 199 225 263 282 296 301 307 305 298 301 309 311 304 298 302 302 294 287 273 268 267